SARAL

Last updated on Sun Apr 12 2026 00:02:35 GMT+0000 (Coordinated Universal Time)

1 39086U 13009A 26101.49188322 .00000078 00000+0 44588-4 0 9993 2 39086 98.5567 288.8995 0002901 109.9939 250.1557 14.32839755686056
UTC large
Height (km)
Speed (km/s)
/
Latitude / Longitude
Inclination (degrees)
Orbital Period (minutes)
Azimuth
Elevation
Range (km)
Doppler Factor

Next 0 passes for location: London (51.5072 / 0.1276)

Sorry there are no passes over London.
SARAL